Location: Les Jeannots
(43.2262°N, 5.5774°E)
Time: 02:25:47
(UTC+00:00)

MTI - Pass Details

Date: 05 July 2020
Orbit: 393 x 405 km, 97.5° (Epoch: 04 August)

Event Time Altitude Azimuth Distance (km) Brightness Sun altitude
Rises 21:47:43 0° 12° (NNE) 2,311 8.3 -19.0°
Reaches altitude 10° 21:49:42 10° 12° (NNE) 1,446 7.2 -19.2°
Enters shadow 21:52:46 89° 341° (NNW) 400 3.5 -19.4°
